| time (UTC) | temp F | wind direction | speed MPH | gust MPH | rain 1hr in | rain 24hr in | rain mn in | humidity % | barometer mb |
| 20260507023602 | 75 | 309 | 2.0 | 8.0 | 0.00 | 0.00 | 0.00 | 51 | 1013.7 |
| 20260507023058 | 75 | 347 | 2.0 | 8.0 | 0.00 | 0.00 | 0.00 | 51 | 1013.7 |
| 20260507022557 | 76 | 316 | 3.0 | 6.0 | 0.00 | 0.00 | 0.00 | 50 | 1013.6 |
| 20260507022058 | 76 | 12 | 3.0 | 5.0 | 0.00 | 0.00 | 0.00 | 49 | 1013.6 |
| 20260507021605 | 76 | 328 | 2.0 | 8.0 | 0.00 | 0.00 | 0.00 | 49 | 1013.5 |
| 20260507021057 | 76 | 329 | 2.0 | 6.0 | 0.00 | 0.00 | 0.00 | 48 | 1013.5 |
| 20260507020557 | 76 | 325 | 2.0 | 9.0 | 0.00 | 0.00 | 0.00 | 48 | 1013.5 |
| 20260507020058 | 76 | 335 | 3.0 | 10.0 | 0.00 | 0.00 | 0.00 | 47 | 1013.5 |
| 20260507015556 | 77 | 314 | 3.0 | 10.0 | 0.00 | 0.00 | 0.00 | 47 | 1013.4 |
| 20260507015057 | 77 | 330 | 3.0 | 8.0 | 0.00 | 0.00 | 0.00 | 46 | 1013.4 |
| 20260507014558 | 77 | 297 | 4.0 | 8.0 | 0.00 | 0.00 | 0.00 | 45 | 1013.4 |
| 20260507014056 | 78 | 284 | 4.0 | 8.0 | 0.00 | 0.00 | 0.00 | 45 | 1013.4 |
| 20260507013556 | 78 | 343 | 2.0 | 8.0 | 0.00 | 0.00 | 0.00 | 46 | 1013.4 |
| 20260507013055 | 78 | 250 | 2.0 | 8.0 | 0.00 | 0.00 | 0.00 | 46 | 1013.4 |
| 20260507012559 | 78 | 243 | 3.0 | 7.0 | 0.00 | 0.00 | 0.00 | 46 | 1013.4 |
| 20260507012055 | 78 | 280 | 3.0 | 9.0 | 0.00 | 0.00 | 0.00 | 45 | 1013.4 |
| 20260507011558 | 79 | 311 | 4.0 | 9.0 | 0.00 | 0.00 | 0.00 | 44 | 1013.3 |
| 20260507011054 | 78 | 320 | 3.0 | 8.0 | 0.00 | 0.00 | 0.00 | 45 | 1013.4 |
| 20260507010554 | 79 | 324 | 3.0 | 6.0 | 0.00 | 0.00 | 0.00 | 44 | 1013.4 |
| 20260507010054 | 78 | 256 | 1.0 | 8.0 | 0.00 | 0.00 | 0.00 | 46 | 1013.4 |
| 20260507005554 | 78 | 272 | 4.0 | 10.0 | 0.00 | 0.00 | 0.00 | 45 | 1013.5 |
| 20260507005054 | 78 | 339 | 3.0 | 10.0 | 0.00 | 0.00 | 0.00 | 46 | 1013.5 |
| 20260507004554 | 78 | 256 | 4.0 | 8.0 | 0.00 | 0.00 | 0.00 | 45 | 1013.5 |
| 20260507004053 | 78 | 295 | 4.0 | 10.0 | 0.00 | 0.00 | 0.00 | 45 | 1013.5 |
| 20260507003553 | 78 | 289 | 7.0 | 10.0 | 0.00 | 0.00 | 0.00 | 46 | 1013.5 |
| 20260507003053 | 78 | 306 | 5.0 | 11.0 | 0.00 | 0.00 | 0.00 | 45 | 1013.6 |
| 20260507002552 | 78 | 253 | 5.0 | 11.0 | 0.00 | 0.00 | 0.00 | 45 | 1013.6 |
| 20260507002052 | 78 | 241 | 6.0 | 11.0 | 0.00 | 0.00 | 0.00 | 45 | 1013.5 |
| 20260507001556 | 78 | 10 | 4.0 | 11.0 | 0.00 | 0.00 | 0.00 | 45 | 1013.6 |
| 20260507001052 | 78 | 317 | 4.0 | 12.0 | 0.00 | 0.00 | 0.00 | 45 | 1013.7 |
| 20260507000551 | 78 | 299 | 5.0 | 12.0 | 0.00 | 0.00 | 0.00 | 45 | 1013.6 |
| 20260507000054 | 78 | 269 | 5.0 | 11.0 | 0.00 | 0.00 | 0.00 | 45 | 1013.6 |
| 20260506235551 | 78 | 260 | 2.0 | 9.0 | 0.00 | 0.00 | 0.00 | 44 | 1013.5 |
| 20260506235050 | 78 | 338 | 4.0 | 9.0 | 0.00 | 0.00 | 0.00 | 45 | 1013.6 |
| 20260506234609 | 78 | 332 | 4.0 | 11.0 | 0.00 | 0.00 | 0.00 | 45 | 1013.6 |
| 20260506234053 | 78 | 319 | 5.0 | 11.0 | 0.00 | 0.00 | 0.00 | 45 | 1013.6 |
| 20260506233551 | 78 | 291 | 2.0 | 10.0 | 0.00 | 0.00 | 0.00 | 44 | 1013.6 |
| 20260506233050 | 79 | 283 | 5.0 | 10.0 | 0.00 | 0.00 | 0.00 | 44 | 1013.7 |
| 20260506232554 | 79 | 268 | 4.0 | 10.0 | 0.00 | 0.00 | 0.00 | 44 | 1013.7 |
| 20260506232050 | 79 | 248 | 3.0 | 10.0 | 0.00 | 0.00 | 0.00 | 44 | 1013.6 |
| 20260506231549 | 79 | 11 | 2.0 | 10.0 | 0.00 | 0.00 | 0.00 | 44 | 1013.7 |
| 20260506231052 | 79 | 335 | 3.0 | 8.0 | 0.00 | 0.00 | 0.00 | 43 | 1013.8 |
| 20260506230553 | 79 | 4 | 1.0 | 9.0 | 0.00 | 0.00 | 0.00 | 44 | 1013.8 |
| 20260506230047 | 79 | 359 | 5.0 | 10.0 | 0.00 | 0.00 | 0.00 | 43 | 1013.9 |
| 20260506225548 | 79 | 243 | 4.0 | 10.0 | 0.00 | 0.00 | 0.00 | 44 | 1013.9 |
| 20260506225045 | 78 | 38 | 3.0 | 10.0 | 0.00 | 0.00 | 0.00 | 45 | 1014.0 |
| 20260506224547 | 78 | 304 | 3.0 | 6.0 | 0.00 | 0.00 | 0.00 | 44 | 1014.1 |
| 20260506224046 | 78 | 229 | 2.0 | 9.0 | 0.00 | 0.00 | 0.00 | 44 | 1014.2 |
| 20260506223543 | 78 | 226 | 4.0 | 10.0 | 0.00 | 0.00 | 0.00 | 44 | 1014.3 |
| 20260506223048 | 78 | 245 | 4.0 | 10.0 | 0.00 | 0.00 | 0.00 | 44 | 1014.3 |
| 20260506222543 | 78 | 251 | 3.0 | 10.0 | 0.00 | 0.00 | 0.00 | 43 | 1014.4 |
| 20260506222045 | 78 | 91 | 1.0 | 4.0 | 0.00 | 0.00 | 0.00 | 44 | 1014.4 |
| 20260506221540 | 77 | 245 | 1.0 | 9.0 | 0.00 | 0.00 | 0.00 | 45 | 1014.5 |
| 20260506221042 | 77 | 287 | 3.0 | 9.0 | 0.00 | 0.00 | 0.00 | 44 | 1014.6 |
| 20260506220538 | 77 | 328 | 2.0 | 5.0 | 0.00 | 0.00 | 0.00 | 46 | 1014.7 |
| 20260506220038 | 76 | 349 | 1.0 | 10.0 | 0.00 | 0.00 | 0.00 | 46 | 1014.8 |
| 20260506215539 | 76 | 283 | 4.0 | 10.0 | 0.00 | 0.00 | 0.00 | 46 | 1014.9 |
| 20260506215037 | 77 | 300 | 4.0 | 9.0 | 0.00 | 0.00 | 0.00 | 45 | 1014.9 |
| 20260506214540 | 76 | 301 | 0.0 | 8.0 | 0.00 | 0.00 | 0.00 | 46 | 1014.9 |
| 20260506214037 | 75 | 4 | 1.0 | 8.0 | 0.00 | 0.00 | 0.00 | 46 | 1015.1 |
| 20260506213539 | 76 | 302 | 4.0 | 10.0 | 0.00 | 0.00 | 0.00 | 46 | 1015.1 |
| 20260506213037 | 77 | 328 | 3.0 | 8.0 | 0.00 | 0.00 | 0.00 | 45 | 1015.2 |
| 20260506212537 | 77 | 17 | 1.0 | 7.0 | 0.00 | 0.00 | 0.00 | 45 | 1015.2 |
| 20260506212037 | 77 | 219 | 4.0 | 8.0 | 0.00 | 0.00 | 0.00 | 45 | 1015.3 |
| 20260506211537 | 76 | 64 | 3.0 | 10.0 | 0.00 | 0.00 | 0.00 | 46 | 1015.3 |
| 20260506211036 | 77 | 4 | 3.0 | 12.0 | 0.00 | 0.00 | 0.00 | 44 | 1015.3 |
| 20260506210535 | 77 | 305 | 1.0 | 8.0 | 0.00 | 0.00 | 0.00 | 45 | 1015.4 |
| 20260506210038 | 75 | 114 | 2.0 | 9.0 | 0.00 | 0.00 | 0.00 | 46 | 1015.5 |
| 20260506205534 | 76 | 344 | 3.0 | 10.0 | 0.00 | 0.00 | 0.00 | 46 | 1015.4 |
| 20260506205035 | 76 | 319 | 4.0 | 10.0 | 0.00 | 0.00 | 0.00 | 48 | 1015.5 |
| 20260506204548 | 77 | 64 | 4.0 | 9.0 | 0.00 | 0.00 | 0.00 | 46 | 1015.5 |
| 20260506204036 | 76 | 197 | 1.0 | 6.0 | 0.00 | 0.00 | 0.00 | 48 | 1015.5 |
| 20260506203534 | 76 | 32 | 3.0 | 6.0 | 0.00 | 0.00 | 0.00 | 46 | 1015.6 |
| 20260506203033 | 76 | 263 | 1.0 | 5.0 | 0.00 | 0.00 | 0.00 | 48 | 1015.6 |
| 20260506202531 | 75 | 354 | 2.0 | 5.0 | 0.00 | 0.00 | 0.00 | 48 | 1015.7 |
| 20260506202033 | 74 | 237 | 2.0 | 7.0 | 0.00 | 0.00 | 0.00 | 50 | 1015.8 |
| 20260506201534 | 73 | 245 | 3.0 | 10.0 | 0.00 | 0.00 | 0.00 | 50 | 1015.9 |
| 20260506201029 | 74 | 249 | 6.0 | 10.0 | 0.00 | 0.00 | 0.00 | 49 | 1016.1 |
| 20260506200529 | 74 | 338 | 3.0 | 8.0 | 0.00 | 0.00 | 0.00 | 49 | 1016.1 |
| 20260506200028 | 74 | 45 | 1.0 | 7.0 | 0.00 | 0.00 | 0.00 | 49 | 1016.1 |
| 20260506195526 | 73 | 76 | 3.0 | 7.0 | 0.00 | 0.00 | 0.00 | 50 | 1016.2 |
| 20260506195026 | 73 | 264 | 3.0 | 10.0 | 0.00 | 0.00 | 0.00 | 50 | 1016.2 |
| 20260506194526 | 73 | 238 | 5.0 | 11.0 | 0.00 | 0.00 | 0.00 | 51 | 1016.3 |
| 20260506194025 | 73 | 291 | 3.0 | 11.0 | 0.00 | 0.00 | 0.00 | 52 | 1016.4 |
| 20260506193525 | 73 | 330 | 2.0 | 11.0 | 0.00 | 0.00 | 0.00 | 51 | 1016.5 |
| 20260506193024 | 73 | 63 | 5.0 | 11.0 | 0.00 | 0.00 | 0.00 | 50 | 1016.5 |
| 20260506192524 | 72 | 151 | 1.0 | 11.0 | 0.00 | 0.00 | 0.00 | 53 | 1016.6 |
| 20260506192024 | 72 | 257 | 5.0 | 11.0 | 0.00 | 0.00 | 0.00 | 52 | 1016.6 |
| 20260506191526 | 72 | 246 | 4.0 | 9.0 | 0.00 | 0.00 | 0.00 | 53 | 1016.8 |
| 20260506191023 | 72 | 308 | 3.0 | 9.0 | 0.00 | 0.00 | 0.00 | 52 | 1016.8 |
| 20260506190521 | 73 | 191 | 3.0 | 5.0 | 0.00 | 0.00 | 0.00 | 53 | 1016.9 |
| 20260506190022 | 72 | 252 | 1.0 | 5.0 | 0.00 | 0.00 | 0.00 | 52 | 1016.8 |
| 20260506185520 | 71 | 46 | 2.0 | 5.0 | 0.00 | 0.00 | 0.00 | 55 | 1016.9 |
| 20260506185019 | 70 | 293 | 2.0 | 6.0 | 0.00 | 0.00 | 0.00 | 55 | 1016.9 |
| 20260506184518 | 70 | 49 | 3.0 | 9.0 | 0.00 | 0.00 | 0.00 | 55 | 1016.9 |
| 20260506184018 | 70 | 224 | 3.0 | 9.0 | 0.00 | 0.00 | 0.00 | 56 | 1016.9 |
| 20260506183517 | 71 | 283 | 2.0 | 7.0 | 0.00 | 0.00 | 0.00 | 57 | 1017.0 |
| 20260506183016 | 70 | 354 | 2.0 | 4.0 | 0.00 | 0.00 | 0.00 | 58 | 1017.0 |
| 20260506182515 | 69 | 64 | 1.0 | 8.0 | 0.00 | 0.00 | 0.00 | 60 | 1017.0 |
| 20260506182013 | 69 | 310 | 4.0 | 9.0 | 0.00 | 0.00 | 0.00 | 60 | 1017.0 |
| 20260506181519 | 69 | 328 | 3.0 | 9.0 | 0.00 | 0.00 | 0.00 | 60 | 1017.1 |
| 20260506181011 | 69 | 247 | 2.0 | 6.0 | 0.00 | 0.00 | 0.00 | 61 | 1017.0 |
| 20260506180515 | 68 | 337 | 3.0 | 9.0 | 0.00 | 0.00 | 0.00 | 62 | 1017.0 |
| 20260506180011 | 68 | 258 | 5.0 | 9.0 | 0.00 | 0.00 | 0.00 | 61 | 1017.1 |
| 20260506175509 | 68 | 280 | 3.0 | 8.0 | 0.00 | 0.00 | 0.00 | 61 | 1017.1 |
| 20260506175007 | 68 | 328 | 3.0 | 8.0 | 0.00 | 0.00 | 0.00 | 63 | 1017.1 |
| 20260506174507 | 67 | 312 | 2.0 | 9.0 | 0.00 | 0.00 | 0.00 | 65 | 1017.1 |
| 20260506174004 | 66 | 120 | 3.0 | 9.0 | 0.00 | 0.00 | 0.00 | 65 | 1017.2 |
| 20260506173504 | 66 | 359 | 3.0 | 8.0 | 0.00 | 0.00 | 0.00 | 66 | 1017.2 |
| 20260506173002 | 65 | 315 | 3.0 | 8.0 | 0.00 | 0.00 | 0.00 | 67 | 1017.2 |
| 20260506172602 | 65 | 316 | 2.0 | 9.0 | 0.00 | 0.00 | 0.00 | 68 | 1017.1 |
| 20260506172059 | 65 | 249 | 3.0 | 9.0 | 0.00 | 0.00 | 0.00 | 68 | 1017.1 |
| 20260506171600 | 65 | 291 | 5.0 | 9.0 | 0.00 | 0.00 | 0.00 | 69 | 1017.1 |
| 20260506171056 | 65 | 309 | 3.0 | 8.0 | 0.00 | 0.00 | 0.00 | 69 | 1017.1 |
| 20260506170554 | 64 | 337 | 2.0 | 10.0 | 0.00 | 0.00 | 0.00 | 69 | 1017.2 |
| 20260506170053 | 64 | 310 | 4.0 | 10.0 | 0.00 | 0.00 | 0.00 | 70 | 1017.3 |
| 20260506165551 | 64 | 310 | 3.0 | 9.0 | 0.00 | 0.00 | 0.00 | 72 | 1017.2 |
| 20260506165049 | 63 | 243 | 6.0 | 9.0 | 0.00 | 0.00 | 0.00 | 72 | 1017.3 |
| 20260506164552 | 63 | 333 | 4.0 | 12.0 | 0.00 | 0.00 | 0.00 | 72 | 1017.2 |
| 20260506164048 | 63 | 258 | 6.0 | 12.0 | 0.00 | 0.00 | 0.00 | 73 | 1017.2 |
| 20260506163545 | 63 | 354 | 4.0 | 9.0 | 0.00 | 0.00 | 0.00 | 74 | 1017.1 |
| 20260506163046 | 62 | 338 | 2.0 | 9.0 | 0.00 | 0.00 | 0.00 | 75 | 1017.1 |
| 20260506162543 | 62 | 290 | 4.0 | 10.0 | 0.00 | 0.00 | 0.00 | 75 | 1017.2 |
| 20260506162042 | 61 | 254 | 4.0 | 11.0 | 0.00 | 0.00 | 0.00 | 76 | 1017.2 |
| 20260506161546 | 61 | 276 | 4.0 | 11.0 | 0.00 | 0.00 | 0.00 | 76 | 1017.3 |
| 20260506161040 | 61 | 319 | 5.0 | 10.0 | 0.00 | 0.00 | 0.00 | 77 | 1017.3 |
| 20260506160539 | 61 | 346 | 5.0 | 10.0 | 0.00 | 0.00 | 0.00 | 78 | 1017.3 |
| 20260506160044 | 60 | 334 | 5.0 | 10.0 | 0.00 | 0.00 | 0.00 | 78 | 1017.3 |
| 20260506155537 | 60 | 277 | 4.0 | 10.0 | 0.00 | 0.00 | 0.00 | 79 | 1017.3 |
| 20260506155036 | 60 | 275 | 5.0 | 9.0 | 0.00 | 0.00 | 0.00 | 80 | 1017.4 |
| 20260506154534 | 59 | 316 | 4.0 | 9.0 | 0.00 | 0.00 | 0.00 | 80 | 1017.3 |
| 20260506154033 | 59 | 295 | 3.0 | 10.0 | 0.00 | 0.00 | 0.00 | 82 | 1017.4 |
| 20260506153530 | 59 | 282 | 4.0 | 11.0 | 0.00 | 0.00 | 0.00 | 83 | 1017.4 |
| 20260506153030 | 58 | 258 | 3.0 | 11.0 | 0.00 | 0.00 | 0.00 | 84 | 1017.4 |
| 20260506152528 | 58 | 302 | 2.0 | 8.0 | 0.00 | 0.00 | 0.00 | 85 | 1017.4 |
| 20260506152027 | 57 | 278 | 2.0 | 9.0 | 0.00 | 0.00 | 0.00 | 85 | 1017.4 |
| 20260506151534 | 57 | 306 | 3.0 | 9.0 | 0.00 | 0.00 | 0.00 | 86 | 1017.5 |
| 20260506151025 | 57 | 289 | 3.0 | 8.0 | 0.00 | 0.00 | 0.00 | 86 | 1017.5 |
| 20260506150525 | 57 | 339 | 2.0 | 6.0 | 0.00 | 0.00 | 0.00 | 87 | 1017.5 |
| 20260506150030 | 56 | 330 | 3.0 | 8.0 | 0.00 | 0.00 | 0.00 | 87 | 1017.5 |
| 20260506145523 | 56 | 241 | 4.0 | 8.0 | 0.00 | 0.00 | 0.00 | 88 | 1017.5 |
| 20260506145023 | 56 | 308 | 3.0 | 8.0 | 0.00 | 0.00 | 0.00 | 88 | 1017.5 |
| 20260506144520 | 56 | 285 | 3.0 | 6.0 | 0.00 | 0.00 | 0.00 | 88 | 1017.5 |
| 20260506144034 | 55 | 243 | 2.0 | 7.0 | 0.00 | 0.00 | 0.00 | 88 | 1017.5 |
| 20260506143519 | 55 | 283 | 2.0 | 7.0 | 0.00 | 0.00 | 0.00 | 89 | 1017.4 |
| 20260506143035 | 55 | 308 | 2.0 | 6.0 | 0.00 | 0.00 | 0.00 | 89 | 1017.3 |
| 20260506142514 | 55 | 322 | 3.0 | 6.0 | 0.00 | 0.00 | 0.00 | 89 | 1017.4 |
| 20260506142013 | 54 | 333 | 2.0 | 6.0 | 0.00 | 0.00 | 0.00 | 89 | 1017.3 |
| 20260506141512 | 54 | 295 | 3.0 | 6.0 | 0.00 | 0.00 | 0.00 | 89 | 1017.3 |
| 20260506141010 | 54 | 303 | 1.0 | 4.0 | 0.00 | 0.00 | 0.00 | 89 | 1017.2 |
| 20260506140509 | 54 | 311 | 2.0 | 4.0 | 0.00 | 0.00 | 0.00 | 89 | 1017.1 |
| 20260506140010 | 53 | 280 | 1.0 | 4.0 | 0.00 | 0.00 | 0.00 | 89 | 1017.0 |
| 20260506135507 | 53 | 316 | 0.0 | 4.0 | 0.00 | 0.00 | 0.00 | 89 | 1016.9 |
| 20260506135007 | 53 | 321 | 2.0 | 4.0 | 0.00 | 0.00 | 0.00 | 89 | 1016.9 |
| 20260506134506 | 53 | 303 | 2.0 | 6.0 | 0.00 | 0.00 | 0.00 | 89 | 1016.8 |
| 20260506134005 | 53 | 274 | 1.0 | 5.0 | 0.00 | 0.00 | 0.00 | 89 | 1016.8 |
| 20260506133503 | 53 | 321 | 1.0 | 6.0 | 0.00 | 0.00 | 0.00 | 89 | 1016.7 |
| 20260506133004 | 53 | 309 | 0.0 | 2.0 | 0.00 | 0.00 | 0.00 | 89 | 1016.7 |
| 20260506132503 | 53 | 310 | 0.0 | 3.0 | 0.00 | 0.00 | 0.00 | 89 | 1016.6 |
| 20260506132100 | 53 | 297 | 1.0 | 3.0 | 0.00 | 0.00 | 0.00 | 89 | 1016.6 |
| 20260506131601 | 53 | 317 | 1.0 | 3.0 | 0.00 | 0.00 | 0.00 | 89 | 1016.6 |
| 20260506131059 | 53 | 289 | 1.0 | 3.0 | 0.00 | 0.00 | 0.00 | 89 | 1016.5 |
| 20260506130558 | 53 | 323 | 1.0 | 3.0 | 0.00 | 0.00 | 0.00 | 89 | 1016.4 |
| 20260506130131 | 53 | 289 | 1.0 | 3.0 | 0.00 | 0.00 | 0.00 | 89 | 1016.4 |
| 20260506125602 | 53 | 313 | 1.0 | 4.0 | 0.00 | 0.00 | 0.00 | 89 | 1016.4 |
| 20260506125056 | 53 | 297 | 1.0 | 4.0 | 0.00 | 0.00 | 0.00 | 89 | 1016.4 |
| 20260506124557 | 53 | 320 | 1.0 | 4.0 | 0.00 | 0.00 | 0.00 | 88 | 1016.3 |
| 20260506124055 | 53 | 274 | 1.0 | 4.0 | 0.00 | 0.00 | 0.00 | 88 | 1016.3 |
| 20260506123558 | 53 | 258 | 2.0 | 4.0 | 0.00 | 0.00 | 0.00 | 88 | 1016.3 |
| 20260506123054 | 53 | 307 | 2.0 | 4.0 | 0.00 | 0.00 | 0.00 | 88 | 1016.2 |
| 20260506122553 | 54 | 284 | 2.0 | 4.0 | 0.00 | 0.00 | 0.00 | 88 | 1016.2 |
| 20260506122053 | 54 | 256 | 2.0 | 4.0 | 0.00 | 0.00 | 0.00 | 88 | 1016.2 |
| 20260506121553 | 54 | 291 | 1.0 | 4.0 | 0.00 | 0.00 | 0.00 | 88 | 1016.1 |
| 20260506121053 | 54 | 337 | 2.0 | 5.0 | 0.00 | 0.00 | 0.00 | 88 | 1016.0 |
| 20260506120552 | 54 | 327 | 3.0 | 5.0 | 0.00 | 0.00 | 0.00 | 88 | 1016.0 |
| 20260506120052 | 54 | 327 | 2.0 | 5.0 | 0.00 | 0.00 | 0.00 | 89 | 1015.9 |
| 20260506115551 | 54 | 329 | 2.0 | 5.0 | 0.00 | 0.00 | 0.00 | 89 | 1015.9 |
| 20260506115051 | 54 | 332 | 2.0 | 4.0 | 0.00 | 0.00 | 0.00 | 89 | 1015.8 |
| 20260506114551 | 54 | 297 | 1.0 | 4.0 | 0.00 | 0.00 | 0.00 | 88 | 1015.8 |
| 20260506114052 | 54 | 316 | 2.0 | 4.0 | 0.00 | 0.00 | 0.00 | 89 | 1015.8 |
| 20260506113551 | 53 | 349 | 2.0 | 4.0 | 0.00 | 0.00 | 0.00 | 88 | 1015.9 |
| 20260506113056 | 53 | 328 | 1.0 | 4.0 | 0.00 | 0.00 | 0.00 | 88 | 1015.9 |
| 20260506112552 | 53 | 339 | 1.0 | 4.0 | 0.00 | 0.00 | 0.00 | 88 | 1016.0 |
| 20260506112054 | 53 | 293 | 1.0 | 3.0 | 0.00 | 0.00 | 0.00 | 88 | 1015.9 |
| 20260506111553 | 53 | 334 | 1.0 | 4.0 | 0.00 | 0.00 | 0.00 | 88 | 1016.0 |
| 20260506111050 | 54 | 305 | 1.0 | 4.0 | 0.00 | 0.00 | 0.00 | 87 | 1015.9 |
| 20260506110549 | 54 | 272 | 2.0 | 3.0 | 0.00 | 0.00 | 0.00 | 87 | 1015.9 |
| 20260506110058 | 54 | 303 | 1.0 | 3.0 | 0.00 | 0.00 | 0.00 | 87 | 1016.0 |
| 20260506105549 | 54 | 307 | 1.0 | 3.0 | 0.00 | 0.00 | 0.00 | 87 | 1015.9 |
| 20260506105049 | 54 | 354 | 0.0 | 3.0 | 0.00 | 0.00 | 0.00 | 87 | 1015.9 |
| 20260506104551 | 54 | 17 | 0.0 | 4.0 | 0.00 | 0.00 | 0.00 | 87 | 1015.8 |
| 20260506104048 | 54 | 345 | 0.0 | 5.0 | 0.00 | 0.00 | 0.00 | 87 | 1015.8 |
| 20260506103548 | 54 | 341 | 2.0 | 5.0 | 0.00 | 0.00 | 0.00 | 87 | 1015.7 |
| 20260506103048 | 54 | 332 | 2.0 | 5.0 | 0.00 | 0.00 | 0.00 | 87 | 1015.7 |
| 20260506102547 | 54 | 330 | 3.0 | 6.0 | 0.00 | 0.00 | 0.00 | 87 | 1015.7 |
| 20260506102045 | 54 | 318 | 2.0 | 6.0 | 0.00 | 0.00 | 0.00 | 87 | 1015.7 |
| 20260506101554 | 54 | 336 | 2.0 | 4.0 | 0.00 | 0.00 | 0.00 | 87 | 1015.7 |
| 20260506101045 | 54 | 342 | 2.0 | 4.0 | 0.00 | 0.00 | 0.00 | 87 | 1015.7 |
| 20260506100548 | 54 | 346 | 1.0 | 4.0 | 0.00 | 0.00 | 0.00 | 86 | 1015.7 |
| 20260506100046 | 55 | 321 | 1.0 | 4.0 | 0.00 | 0.00 | 0.00 | 86 | 1015.7 |
| 20260506095547 | 55 | 332 | 1.0 | 4.0 | 0.00 | 0.00 | 0.00 | 86 | 1015.6 |
| 20260506095044 | 55 | 320 | 2.0 | 4.0 | 0.00 | 0.00 | 0.00 | 86 | 1015.6 |
| 20260506094553 | 55 | 326 | 1.0 | 3.0 | 0.00 | 0.00 | 0.00 | 86 | 1015.6 |
| 20260506094043 | 55 | 343 | 0.0 | 4.0 | 0.00 | 0.00 | 0.00 | 86 | 1015.5 |
| 20260506093547 | 55 | 343 | 1.0 | 5.0 | 0.00 | 0.00 | 0.00 | 85 | 1015.5 |
| 20260506093047 | 55 | 345 | 3.0 | 5.0 | 0.00 | 0.00 | 0.00 | 85 | 1015.4 |
| 20260506092542 | 55 | 332 | 2.0 | 5.0 | 0.00 | 0.00 | 0.00 | 85 | 1015.3 |
| 20260506092042 | 55 | 349 | 3.0 | 5.0 | 0.00 | 0.00 | 0.00 | 85 | 1015.3 |
| 20260506091542 | 55 | 338 | 2.0 | 5.0 | 0.00 | 0.00 | 0.00 | 85 | 1015.2 |
| 20260506091045 | 55 | 342 | 1.0 | 6.0 | 0.00 | 0.00 | 0.00 | 85 | 1015.2 |
| 20260506090544 | 55 | 338 | 3.0 | 9.0 | 0.00 | 0.00 | 0.00 | 85 | 1015.1 |
| 20260506090043 | 55 | 343 | 2.0 | 9.0 | 0.00 | 0.00 | 0.00 | 85 | 1015.0 |
| 20260506085539 | 55 | 322 | 4.0 | 8.0 | 0.00 | 0.00 | 0.00 | 84 | 1014.9 |
| 20260506085038 | 56 | 313 | 3.0 | 8.0 | 0.00 | 0.00 | 0.00 | 84 | 1015.0 |
| 20260506084538 | 56 | 320 | 3.0 | 7.0 | 0.00 | 0.00 | 0.00 | 84 | 1015.2 |
| 20260506084037 | 56 | 295 | 3.0 | 8.0 | 0.00 | 0.00 | 0.00 | 85 | 1015.3 |
| 20260506083541 | 56 | 339 | 3.0 | 8.0 | 0.00 | 0.00 | 0.00 | 85 | 1015.2 |
| 20260506083037 | 56 | 320 | 3.0 | 8.0 | 0.00 | 0.00 | 0.00 | 85 | 1015.4 |
| 20260506082539 | 56 | 328 | 1.0 | 5.0 | 0.00 | 0.00 | 0.00 | 85 | 1015.6 |
| 20260506082035 | 56 | 333 | 1.0 | 4.0 | 0.00 | 0.00 | 0.00 | 85 | 1015.8 |
| 20260506081534 | 56 | 38 | 2.0 | 5.0 | 0.00 | 0.00 | 0.00 | 85 | 1016.0 |
| 20260506081034 | 57 | 341 | 2.0 | 8.0 | 0.00 | 0.00 | 0.00 | 85 | 1016.0 |
| 20260506080533 | 57 | 68 | 2.0 | 5.0 | 0.00 | 0.00 | 0.00 | 84 | 1016.0 |
| 20260506073528 | 57 | 4 | 1.0 | 5.0 | 0.00 | 0.00 | 0.00 | 83 | 1015.5 |
| 20260506073027 | 57 | 332 | 2.0 | 4.0 | 0.00 | 0.00 | 0.00 | 83 | 1015.4 |
| 20260506072527 | 57 | 345 | 1.0 | 5.0 | 0.00 | 0.00 | 0.00 | 83 | 1015.4 |
| 20260506072025 | 57 | 354 | 1.0 | 3.0 | 0.00 | 0.00 | 0.00 | 83 | 1015.3 |
| 20260506071526 | 57 | 354 | 1.0 | 5.0 | 0.00 | 0.00 | 0.00 | 83 | 1015.3 |
| 20260506071025 | 57 | 343 | 1.0 | 5.0 | 0.00 | 0.00 | 0.00 | 83 | 1015.2 |
| 20260506070523 | 57 | 332 | 2.0 | 4.0 | 0.00 | 0.00 | 0.00 | 83 | 1015.1 |
| 20260506062019 | 58 | 334 | 0.0 | 3.0 | 0.00 | 0.00 | 0.00 | 81 | 1014.5 |
| 20260506061519 | 58 | 339 | 1.0 | 3.0 | 0.00 | 0.00 | 0.00 | 81 | 1014.5 |
| 20260506061019 | 58 | 330 | 1.0 | 3.0 | 0.00 | 0.00 | 0.00 | 80 | 1014.5 |
| 20260506060521 | 59 | 327 | 1.0 | 3.0 | 0.00 | 0.00 | 0.00 | 80 | 1014.5 |
| 20260506051017 | 60 | 324 | 2.0 | 4.0 | 0.00 | 0.00 | 0.00 | 78 | 1014.2 |
| 20260506050521 | 60 | 277 | 2.0 | 4.0 | 0.00 | 0.00 | 0.00 | 77 | 1014.2 |
| 20260506045013 | 60 | 305 | 2.0 | 4.0 | 0.00 | 0.00 | 0.00 | 76 | 1014.1 |
| 20260506044513 | 61 | 321 | 2.0 | 5.0 | 0.00 | 0.00 | 0.00 | 75 | 1014.0 |
| 20260506044019 | 61 | 316 | 2.0 | 5.0 | 0.00 | 0.00 | 0.00 | 75 | 1013.9 |
| 20260506043512 | 61 | 312 | 2.0 | 5.0 | 0.00 | 0.00 | 0.00 | 74 | 1013.8 |
| 20260506043011 | 61 | 324 | 2.0 | 4.0 | 0.00 | 0.00 | 0.00 | 73 | 1013.8 |
| 20260506042511 | 61 | 303 | 1.0 | 4.0 | 0.00 | 0.00 | 0.00 | 73 | 1013.7 |
| 20260506042017 | 61 | 305 | 2.0 | 4.0 | 0.00 | 0.00 | 0.00 | 72 | 1013.6 |
| 20260506041522 | 61 | 335 | 1.0 | 4.0 | 0.00 | 0.00 | 0.00 | 72 | 1013.5 |
| 20260506041012 | 62 | 312 | 2.0 | 4.0 | 0.00 | 0.00 | 0.00 | 72 | 1013.4 |
| 20260506040515 | 62 | 304 | 1.0 | 4.0 | 0.00 | 0.00 | 0.00 | 71 | 1013.5 |
| 20260506040009 | 62 | 298 | 1.0 | 4.0 | 0.00 | 0.00 | 0.00 | 71 | 1013.4 |
| 20260506035507 | 62 | 321 | 1.0 | 5.0 | 0.00 | 0.00 | 0.00 | 70 | 1013.3 |
| 20260506035007 | 62 | 319 | 2.0 | 5.0 | 0.00 | 0.00 | 0.00 | 70 | 1013.1 |
| 20260506034508 | 62 | 328 | 1.0 | 5.0 | 0.00 | 0.00 | 0.00 | 70 | 1013.1 |
| 20260506034007 | 62 | 280 | 1.0 | 6.0 | 0.00 | 0.00 | 0.00 | 69 | 1013.1 |
| 20260506033506 | 62 | 316 | 2.0 | 3.0 | 0.00 | 0.00 | 0.00 | 69 | 1013.0 |
| 20260506033006 | 63 | 290 | 1.0 | 5.0 | 0.00 | 0.00 | 0.00 | 69 | 1012.9 |
| 20260506032508 | 63 | 327 | 2.0 | 5.0 | 0.00 | 0.00 | 0.00 | 69 | 1012.9 |
| 20260506032007 | 63 | 314 | 1.0 | 5.0 | 0.00 | 0.00 | 0.00 | 68 | 1012.8 |
| 20260506031512 | 63 | 331 | 1.0 | 6.0 | 0.00 | 0.00 | 0.00 | 68 | 1012.7 |
| 20260506031006 | 63 | 306 | 2.0 | 6.0 | 0.00 | 0.00 | 0.00 | 67 | 1012.6 |
| 20260506030508 | 63 | 326 | 2.0 | 5.0 | 0.00 | 0.00 | 0.00 | 67 | 1012.6 |
| 20260506030008 | 64 | 270 | 1.0 | 6.0 | 0.00 | 0.00 | 0.00 | 66 | 1012.6 |
| 20260506025505 | 64 | 316 | 1.0 | 6.0 | 0.00 | 0.00 | 0.00 | 66 | 1012.5 |
| 20260506025009 | 64 | 324 | 3.0 | 6.0 | 0.00 | 0.00 | 0.00 | 65 | 1012.4 |
| 20260506024506 | 64 | 336 | 2.0 | 6.0 | 0.00 | 0.00 | 0.00 | 65 | 1012.4 |
| 20260506024005 | 64 | 299 | 3.0 | 8.0 | 0.00 | 0.00 | 0.00 | 65 | 1012.4 |